PBO Station Position Time Series. Reference Frame : NAM14
Format Version,1.1.0
4-character ID,CHA1
Station name,Charleston_1
Begin Date, 1996-01-11
End Date, 2003-11-16
Release Date, 2019-08-30
Reference position, 32.7575663826 North Latitude, -79.8428754573 East Longitude, -29.03657 meters elevation,
Date, North (mm), East (mm), Vertical (mm), North Std. Deviation (mm), East Std. Deviation (mm),              Vertical Std. Deviation (mm), Quality,
1996-01-11,0.00, 0.00, 16.46, 5.06, 4.96, 20.60, repro,
1996-01-12,1.90, -7.43, 0.00, 3.53, 3.26, 13.16, repro,
1996-01-13,0.13, -5.23, 1.55, 3.40, 3.14, 13.22, repro,
1996-01-14,1.21, -5.18, 0.29, 3.33, 3.10, 13.30, repro,
1996-01-15,1.53, -4.17, 0.87, 3.37, 3.16, 13.44, repro,
1996-01-16,3.10, -5.32, -1.18, 3.38, 3.22, 13.97, repro,
1996-01-17,3.19, -5.04, 7.68, 3.39, 3.16, 13.51, repro,
1996-01-18,1.33, -7.55, 4.00, 3.12, 2.96, 12.99, repro,
1996-01-19,2.19, -4.21, 12.18, 3.50, 3.40, 14.86, repro,
1996-01-20,3.71, -7.20, 7.60, 3.58, 3.36, 14.20, repro,
1996-01-21,4.65, -7.44, 15.27, 3.42, 3.30, 14.01, repro,
1996-01-22,1.68, -6.51, 5.84, 2.94, 2.66, 11.23, repro,
1996-01-23,0.98, -6.84, 5.78, 3.37, 3.25, 14.08, repro,
1996-01-24,1.28, -4.41, 23.32, 3.53, 3.37, 14.62, repro,
1996-01-25,3.48, -5.93, 16.38, 3.17, 3.14, 12.90, repro,
1996-01-26,4.62, -6.39, -0.98, 3.30, 3.16, 12.67, repro,
1996-01-27,2.82, -7.18, 9.37, 3.23, 3.17, 12.38, repro,
1996-01-28,2.72, -4.37, 1.65, 3.35, 3.37, 13.00, repro,
1996-01-29,5.04, -7.11, 1.58, 2.62, 2.33, 9.21, repro,
1996-01-30,3.19, -6.75, -7.03, 3.17, 3.13, 12.43, repro,
1996-01-31,4.95, -6.65, 6.41, 2.61, 2.35, 9.27, repro,
1996-02-01,3.12, -7.39, 5.90, 2.61, 2.35, 9.46, repro,
1996-02-02,2.69, -7.35, 1.26, 2.80, 2.49, 9.91, repro,
1996-02-03,-2.47, -8.14, 7.47, 2.74, 2.41, 9.55, repro,
1996-02-04,-1.37, -4.17, 1.64, 2.81, 2.47, 9.92, repro,
1996-02-05,4.87, -5.81, -2.45, 2.77, 2.48, 9.99, repro,
1996-02-06,3.94, -6.97, 10.70, 2.76, 2.49, 10.20, repro,
1996-02-07,2.51, -7.26, 0.95, 2.71, 2.37, 9.79, repro,
1996-02-08,1.08, -6.78, 26.28, 2.75, 2.40, 9.52, repro,
1996-02-09,-5.49, -5.49, 32.49, 3.35, 3.25, 13.89, repro,
1996-02-10,3.17, -7.56, 21.73, 2.65, 2.30, 9.31, repro,
1996-02-11,2.51, -7.44, 13.50, 3.19, 2.87, 11.21, repro,
1996-02-12,1.31, -7.00, 6.25, 3.29, 3.04, 12.23, repro,
1996-02-13,3.47, -4.40, 13.01, 3.65, 3.35, 12.91, repro,
1996-02-14,0.51, -6.69, 16.06, 3.15, 2.84, 10.83, repro,
1996-02-15,3.05, -4.87, 22.68, 2.89, 2.63, 10.16, repro,
1996-02-16,1.47, -8.32, 7.44, 3.71, 3.27, 13.75, repro,
1996-02-17,1.90, -7.12, 2.81, 2.64, 2.40, 9.60, repro,
1996-02-18,1.60, -11.95, 16.07, 10.09, 12.88, 44.43, repro,
1996-02-19,0.23, -3.62, 6.76, 2.81, 2.54, 9.52, repro,
1996-02-20,8.95, -25.67, -2.77, 11.85, 14.58, 41.33, repro,
1996-02-21,1.84, -3.57, 9.01, 3.88, 3.80, 15.29, repro,
1996-02-22,2.13, -5.75, 8.91, 2.89, 2.63, 10.37, repro,
1996-02-23,4.62, -7.26, 21.28, 3.05, 2.80, 10.52, repro,
1996-02-24,3.58, -8.05, 7.25, 2.97, 2.68, 10.23, repro,
1996-02-25,1.83, -6.98, 3.34, 3.13, 2.86, 11.03, repro,
1996-02-26,4.73, -3.75, 20.52, 3.24, 3.04, 11.92, repro,
1996-02-27,1.45, -5.31, 11.89, 3.23, 2.92, 11.74, repro,
1996-02-28,3.82, -7.43, 26.75, 3.21, 2.92, 11.84, repro,
1996-02-29,1.40, -9.93, 14.97, 3.06, 2.86, 10.76, repro,
1996-03-01,1.83, -8.09, -1.21, 3.11, 2.94, 11.14, repro,
1996-03-02,3.05, -7.75, 1.03, 3.14, 2.82, 11.28, repro,
1996-03-03,4.52, -7.27, 7.72, 2.92, 2.69, 10.56, repro,
1996-03-04,4.06, -8.32, 1.69, 3.23, 2.77, 11.20, repro,
1996-03-05,-0.40, -6.46, 1.73, 2.76, 2.42, 10.18, repro,
1996-03-06,-1.54, -6.35, 3.79, 2.70, 2.39, 9.55, repro,
1996-03-07,1.37, -7.97, 13.57, 2.76, 2.40, 9.74, repro,
1996-03-08,6.93, -11.72, -8.20, 3.89, 3.50, 15.28, repro,
1996-03-09,3.07, -6.44, 1.14, 3.13, 2.80, 11.63, repro,
1996-03-10,0.03, -8.38, -9.77, 3.60, 3.24, 13.31, repro,
1996-03-11,2.62, -5.16, -4.54, 2.78, 2.47, 9.60, repro,
1996-03-12,2.22, -9.25, -1.64, 2.69, 2.42, 9.43, repro,
1996-03-13,2.66, -9.46, -0.33, 2.64, 2.34, 9.81, repro,
1996-03-14,1.46, -7.46, -1.03, 2.86, 2.55, 9.90, repro,
1996-03-15,2.70, -9.39, 8.27, 3.19, 2.91, 11.71, repro,
1996-03-16,4.72, -9.76, 1.74, 3.14, 2.87, 12.09, repro,
1996-03-17,0.60, -6.03, 4.80, 3.26, 3.06, 12.44, repro,
1996-03-18,4.39, -7.38, -10.17, 3.43, 3.14, 12.56, repro,
1996-03-19,0.72, -10.57, 4.95, 3.25, 2.98, 12.07, repro,
1996-03-20,4.45, -6.42, 9.68, 3.35, 3.19, 12.55, repro,
1996-03-21,2.83, -8.73, 11.25, 3.45, 3.23, 12.61, repro,
1996-03-22,0.81, -7.62, -4.84, 3.24, 3.12, 12.50, repro,
1996-03-23,2.60, -7.27, -9.80, 3.31, 3.16, 12.70, repro,
1996-03-24,-3.14, -6.54, -19.24, 3.40, 2.95, 12.34, repro,
1996-03-25,4.49, -7.11, 4.00, 3.19, 3.04, 11.54, repro,
1996-03-26,2.37, -9.08, -5.57, 3.14, 2.82, 11.68, repro,
1996-03-27,4.37, -5.21, 8.30, 2.71, 2.41, 9.10, repro,
1996-03-28,3.36, -7.01, -1.97, 2.69, 2.37, 9.16, repro,
1996-03-29,1.30, -6.37, 13.69, 2.56, 2.26, 8.98, repro,
1996-03-30,3.34, -8.40, 4.36, 2.67, 2.36, 9.09, repro,
1996-03-31,4.06, -7.80, 13.02, 2.70, 2.38, 9.09, repro,
1996-04-01,3.66, -7.90, 15.95, 2.75, 2.39, 9.82, repro,
1996-04-02,3.14, -6.47, 13.57, 3.07, 2.68, 9.47, repro,
1996-04-03,3.06, -8.25, 9.16, 2.58, 2.25, 8.79, repro,
1996-04-04,4.35, -8.54, 10.69, 2.64, 2.31, 8.77, repro,
1996-04-05,1.80, -8.40, 5.75, 2.68, 2.32, 9.38, repro,
1996-04-06,3.61, -7.61, 14.58, 2.67, 2.35, 8.92, repro,
1996-04-07,4.84, -7.25, 13.02, 2.66, 2.37, 9.03, repro,
1996-04-08,4.42, -7.81, 8.57, 2.67, 2.36, 8.90, repro,
1996-04-09,3.21, -7.31, 5.43, 2.60, 2.31, 8.86, repro,
1996-04-10,5.64, -8.34, 7.09, 2.64, 2.33, 8.79, repro,
1996-04-11,3.29, -5.08, 11.17, 2.57, 2.27, 8.74, repro,
1996-04-12,3.05, -5.90, 18.03, 2.77, 2.42, 9.64, repro,
1996-04-13,3.83, -6.43, 8.41, 2.68, 2.31, 9.15, repro,
1996-04-14,-1.19, -8.50, -4.61, 2.67, 2.32, 9.40, repro,
1996-04-15,5.32, -7.31, 5.13, 2.66, 2.34, 8.96, repro,
1996-04-16,5.48, -6.10, 5.82, 2.57, 2.30, 8.89, repro,
1996-04-17,5.22, -7.13, 11.81, 2.70, 2.39, 9.17, repro,
1996-04-18,3.29, -6.08, -1.21, 2.77, 2.44, 9.80, repro,
1996-04-19,2.57, -5.27, 11.55, 2.68, 2.43, 9.41, repro,
1996-04-20,4.95, -6.35, 10.10, 2.79, 2.44, 9.75, repro,
1996-04-21,4.31, -6.80, 8.56, 2.81, 2.47, 9.57, repro,
1996-04-22,6.50, -7.66, 13.16, 2.73, 2.33, 9.23, repro,
1996-04-23,5.08, -7.87, 4.48, 2.60, 2.33, 9.23, repro,
1996-04-24,6.29, -6.16, 10.37, 2.67, 2.35, 9.06, repro,
1996-04-25,5.15, -7.39, 9.48, 2.78, 2.48, 9.60, repro,
1996-04-26,3.95, -7.14, 6.52, 2.64, 2.34, 9.16, repro,
1996-04-27,5.00, -8.82, 17.31, 2.61, 2.31, 9.04, repro,
1996-04-28,7.44, -6.89, 15.15, 2.77, 2.48, 9.39, repro,
1996-04-29,6.99, -6.33, 10.26, 2.78, 2.58, 9.96, repro,
1996-04-30,3.86, -8.47, 12.35, 2.65, 2.44, 9.45, repro,
1996-05-01,5.15, -7.96, 7.40, 2.84, 2.52, 9.87, repro,
1996-05-02,7.30, -7.73, 6.87, 2.76, 2.47, 9.42, repro,
1996-05-03,4.04, -5.28, 17.27, 2.65, 2.31, 8.96, repro,
1996-05-04,4.94, -4.80, 8.40, 2.65, 2.41, 9.21, repro,
1996-05-05,5.86, -6.83, 8.26, 2.66, 2.39, 9.04, repro,
1996-05-06,4.07, -6.09, 7.89, 2.56, 2.26, 8.82, repro,
1996-05-07,4.73, -6.11, 7.26, 2.72, 2.43, 9.24, repro,
1996-05-08,7.02, -6.61, 8.71, 2.80, 2.47, 9.31, repro,
1996-05-09,3.54, -3.50, 14.73, 3.71, 3.34, 13.62, repro,
1996-05-10,4.35, -8.99, 17.62, 3.38, 2.98, 12.85, repro,
1996-05-11,1.17, -5.17, 9.28, 2.73, 2.43, 10.40, repro,
1996-05-12,5.70, -8.27, 17.15, 2.81, 2.45, 9.90, repro,
1996-05-13,9.52, -4.31, 6.24, 3.74, 3.21, 13.84, repro,
1996-05-14,4.86, -6.76, 12.19, 3.10, 2.68, 10.57, repro,
1996-05-15,8.53, -6.29, 8.89, 3.54, 3.16, 12.77, repro,
1996-05-16,8.40, -4.84, 22.48, 3.63, 3.26, 14.11, repro,
1996-05-17,5.72, -7.48, 10.60, 3.28, 2.69, 11.44, repro,
1996-05-18,3.26, -3.48, -3.65, 6.89, 5.83, 27.83, repro,
1996-05-20,5.65, -6.21, 17.07, 4.02, 3.56, 15.75, repro,
1996-05-21,5.81, -5.25, 6.69, 2.86, 2.51, 9.71, repro,
1996-05-22,8.48, -3.23, 9.87, 2.96, 2.63, 10.08, repro,
1996-05-23,4.32, -5.48, 15.29, 2.85, 2.53, 10.05, repro,
1996-05-24,4.47, -6.11, 6.29, 2.81, 2.52, 9.56, repro,
1996-05-25,63.16, -100.03, -182.31, 14.02, 9.92, 49.63, repro,
1996-05-28,4.37, -9.20, 3.48, 3.49, 3.16, 13.20, repro,
1996-05-29,4.42, -7.21, 14.94, 2.82, 2.50, 9.97, repro,
1996-05-30,4.15, -6.40, 14.34, 2.76, 2.47, 9.61, repro,
1996-05-31,2.67, -5.18, 7.09, 2.71, 2.39, 9.24, repro,
1996-06-01,5.22, -6.56, 3.94, 2.77, 2.45, 9.33, repro,
1996-06-02,3.20, -8.42, 6.77, 2.75, 2.44, 9.35, repro,
1996-06-03,3.61, -5.84, 8.22, 2.77, 2.47, 9.57, repro,
1996-06-04,3.49, -4.49, 10.67, 2.76, 2.42, 9.57, repro,
1996-06-05,3.41, -7.30, 11.55, 2.87, 2.54, 10.14, repro,
1996-06-06,2.53, -7.63, 5.89, 2.81, 2.44, 9.83, repro,
1996-06-07,5.62, -7.19, 5.44, 2.92, 2.60, 10.46, repro,
1996-06-08,1.83, -7.86, 14.77, 2.77, 2.45, 10.37, repro,
1996-06-09,3.14, -8.37, 27.85, 2.79, 2.49, 9.93, repro,
1996-06-10,3.85, -9.60, 9.32, 2.97, 2.55, 10.23, repro,
1996-06-11,7.87, -6.41, 15.91, 3.00, 2.57, 10.48, repro,
1996-06-12,1.46, -7.17, 28.65, 2.86, 2.49, 9.80, repro,
1996-06-13,6.53, -8.08, 0.44, 2.92, 2.55, 10.56, repro,
1996-06-14,2.23, -8.26, 8.46, 2.75, 2.39, 9.65, repro,
1996-06-15,1.58, -8.99, 15.38, 2.73, 2.36, 9.62, repro,
1996-06-16,-0.08, -5.78, 22.81, 2.72, 2.39, 9.52, repro,
1996-06-17,1.57, -8.79, 11.67, 2.85, 2.50, 10.28, repro,
1996-06-18,2.54, -8.84, 13.95, 3.75, 3.01, 13.65, repro,
1996-06-19,3.66, -7.38, 13.75, 2.89, 2.51, 10.57, repro,
1996-06-20,0.62, -8.63, 26.40, 2.75, 2.38, 9.88, repro,
1996-06-21,3.45, -5.58, 17.56, 2.78, 2.39, 9.83, repro,
1996-06-22,1.07, -5.79, 9.90, 2.42, 2.13, 9.58, repro,
1996-06-23,2.62, -6.41, 5.82, 2.73, 2.37, 9.86, repro,
1996-06-24,4.06, -6.30, 16.95, 2.82, 2.41, 10.13, repro,
1996-06-25,4.21, -5.03, 13.43, 2.85, 2.50, 10.24, repro,
1996-06-26,3.58, -4.63, 21.61, 2.84, 2.47, 10.18, repro,
1996-06-27,2.17, -4.72, 13.51, 2.91, 2.67, 10.69, repro,
1996-06-28,5.45, -6.58, 4.84, 2.80, 2.47, 10.07, repro,
1996-06-29,3.80, -6.13, 14.55, 2.78, 2.46, 9.85, repro,
1996-06-30,5.00, -7.31, 14.82, 2.84, 2.52, 10.68, repro,
1996-07-01,4.42, -7.00, 16.62, 2.73, 2.40, 9.77, repro,
1996-07-02,1.85, -3.22, 25.66, 2.85, 2.48, 10.39, repro,
1996-07-03,5.29, -5.42, 19.18, 2.93, 2.62, 10.96, repro,
1996-07-04,4.93, -6.60, 16.76, 2.77, 2.46, 9.94, repro,
1996-07-05,1.79, -4.61, 27.53, 2.80, 2.43, 10.01, repro,
1996-07-06,2.69, -6.88, 18.72, 2.76, 2.38, 9.69, repro,
1996-07-07,2.44, -8.64, 2.92, 2.72, 2.41, 9.46, repro,
1996-07-08,2.10, -5.52, 34.86, 2.83, 2.47, 10.08, repro,
1996-07-09,3.09, -3.94, 20.44, 2.73, 2.42, 9.87, repro,
1996-07-10,2.84, -4.00, 22.81, 2.69, 2.38, 9.87, repro,
1996-07-11,1.79, -6.44, 10.30, 2.69, 2.43, 9.69, repro,
1996-07-12,3.78, -6.45, -2.27, 2.85, 2.50, 10.09, repro,
1996-07-13,1.45, -5.30, 21.43, 2.72, 2.45, 9.55, repro,
1996-07-14,3.58, -5.68, 10.55, 2.78, 2.48, 9.65, repro,
1996-07-15,4.05, -4.68, 17.71, 2.70, 2.50, 10.04, repro,
1996-07-16,5.25, -6.10, 12.23, 2.77, 2.62, 10.29, repro,
1996-07-17,6.58, -8.59, 6.67, 2.86, 2.51, 10.43, repro,
1996-07-18,0.78, -6.52, 14.19, 2.60, 2.32, 9.30, repro,
1996-07-19,2.14, -4.27, 21.59, 2.67, 2.43, 9.84, repro,
1996-07-20,3.17, -2.84, 29.37, 2.60, 2.32, 9.50, repro,
1996-07-21,5.69, -8.58, 24.38, 3.07, 2.79, 11.47, repro,
1996-07-22,2.41, -7.53, -2.61, 2.64, 2.33, 9.49, repro,
1996-07-23,0.58, -7.49, 10.43, 2.28, 2.00, 9.45, repro,
1996-07-24,-1.22, -5.02, 12.71, 2.33, 2.12, 9.58, repro,
1996-07-25,-1.73, -5.12, 10.91, 2.31, 2.06, 9.16, repro,
1996-07-26,1.07, -4.55, 17.26, 2.32, 2.05, 9.57, repro,
1996-07-27,1.94, -3.27, 9.62, 2.26, 2.02, 8.91, repro,
1996-07-28,-0.22, -3.65, 15.26, 2.37, 2.13, 9.62, repro,
1996-07-29,2.29, -7.01, -5.42, 2.31, 2.08, 9.42, repro,
1996-07-30,0.74, -3.67, 9.34, 2.26, 2.00, 9.02, repro,
1996-07-31,-1.15, -4.70, 1.30, 2.35, 2.08, 9.27, repro,
1996-08-01,1.30, -5.66, 6.21, 2.33, 2.12, 9.30, repro,
1996-08-02,4.72, -4.69, 9.75, 2.33, 2.08, 9.16, repro,
1996-08-03,2.75, -6.66, 5.21, 2.29, 2.03, 8.99, repro,
1996-08-04,-1.71, -4.17, -3.70, 2.64, 2.17, 10.43, repro,
1996-08-05,1.42, -4.52, 15.28, 2.30, 2.07, 9.22, repro,
1996-08-06,0.94, -3.99, 3.90, 2.39, 2.15, 9.56, repro,
1996-08-07,1.41, -4.22, 14.88, 2.45, 2.12, 9.69, repro,
1996-08-08,0.28, -5.52, -1.60, 2.34, 2.05, 9.41, repro,
1996-08-09,4.60, -5.18, 7.71, 2.56, 2.28, 9.07, repro,
1996-08-10,2.84, -4.59, 13.64, 2.55, 2.28, 8.93, repro,
1996-08-11,4.66, -6.23, 12.38, 2.71, 2.41, 9.49, repro,
1996-08-12,4.77, -6.51, -2.97, 2.63, 2.35, 9.81, repro,
1996-08-13,2.24, -6.70, -3.44, 2.51, 2.27, 9.17, repro,
1996-08-14,8.03, -7.80, 8.58, 2.61, 2.36, 9.58, repro,
1996-08-15,1.47, -6.62, 0.26, 2.64, 2.35, 9.41, repro,
1996-08-16,0.57, -7.43, 20.47, 2.59, 2.33, 9.35, repro,
1996-08-17,3.05, -5.48, 13.53, 2.63, 2.35, 9.47, repro,
1996-08-18,3.13, -6.33, 19.25, 2.76, 2.55, 10.12, repro,
1996-08-19,2.14, -5.97, 2.24, 2.70, 2.53, 10.37, repro,
1996-08-20,5.54, -5.47, 4.91, 2.75, 2.53, 10.02, repro,
1996-08-21,3.20, -10.40, 17.29, 2.70, 2.49, 10.32, repro,
1996-08-22,2.76, -6.50, 17.47, 2.59, 2.35, 9.60, repro,
1996-08-23,1.62, -6.90, 6.94, 2.57, 2.35, 9.55, repro,
1996-08-24,0.09, -9.88, 10.61, 2.70, 2.45, 10.01, repro,
1996-08-25,1.23, -9.24, 14.27, 2.75, 2.58, 10.46, repro,
1996-08-26,2.29, -5.96, 9.37, 2.76, 2.50, 10.19, repro,
1996-08-27,3.22, -8.96, 15.16, 2.79, 2.55, 10.07, repro,
1996-08-28,2.64, -6.19, 23.61, 2.61, 2.43, 9.49, repro,
1996-08-29,1.75, -7.37, 8.77, 2.74, 2.53, 9.96, repro,
1996-08-30,1.55, -6.27, 23.91, 2.90, 2.59, 10.21, repro,
1996-08-31,3.92, -10.04, 27.00, 2.53, 2.34, 9.05, repro,
1996-09-01,0.15, -4.70, 9.37, 2.78, 2.59, 10.07, repro,
1996-09-02,2.70, -4.53, 30.58, 2.79, 2.51, 9.98, repro,
1996-09-03,-0.78, -4.87, 15.11, 2.54, 2.40, 10.26, repro,
1996-09-04,2.60, -9.12, 21.40, 2.65, 2.45, 10.26, repro,
1996-09-05,0.66, -4.61, 6.08, 2.82, 2.59, 10.56, repro,
1996-09-06,3.95, -8.03, 21.79, 2.73, 2.42, 10.68, repro,
1996-09-07,4.43, -6.90, 16.76, 2.71, 2.46, 9.91, repro,
1996-09-08,5.28, -5.80, 29.95, 2.55, 2.40, 9.50, repro,
1996-09-09,-0.57, -4.79, 27.46, 2.65, 2.57, 10.31, repro,
1996-09-10,-0.10, -6.46, 10.54, 2.76, 2.49, 10.53, repro,
1996-09-11,-0.36, -7.41, 9.89, 2.88, 2.60, 10.88, repro,
1996-09-12,1.53, -8.05, 18.99, 2.82, 2.64, 10.85, repro,
1996-09-13,3.00, -5.20, 22.47, 2.56, 2.35, 9.42, repro,
1996-09-14,-1.55, -6.14, 19.25, 2.44, 2.26, 9.74, repro,
1996-09-15,1.99, -8.81, 13.69, 2.58, 2.42, 9.63, repro,
1996-09-16,-0.46, -6.31, 21.61, 2.81, 2.55, 10.77, repro,
1996-09-17,4.60, -9.39, 0.11, 2.81, 2.59, 10.67, repro,
1996-09-18,3.72, -8.51, 13.21, 2.55, 2.30, 9.23, repro,
1996-09-19,-0.38, -5.66, 10.31, 2.39, 2.26, 9.39, repro,
1996-09-20,1.73, -6.50, 10.40, 2.57, 2.33, 9.23, repro,
1996-09-21,-2.13, -6.90, 18.57, 2.42, 2.18, 9.52, repro,
1996-09-22,2.14, -5.54, 18.39, 2.76, 2.62, 10.43, repro,
1996-09-23,-1.47, -7.57, 18.06, 2.62, 2.42, 9.83, repro,
1996-09-24,0.32, -8.19, 12.12, 2.48, 2.32, 9.37, repro,
1996-09-25,-0.65, -8.23, 0.48, 3.44, 3.27, 13.58, repro,
1996-10-15,-6.04, -9.34, 5.69, 5.97, 5.20, 23.34, repro,
1996-10-16,-5.40, -8.02, 4.06, 3.14, 2.78, 11.95, repro,
1996-10-17,-0.35, -10.62, 16.92, 2.57, 2.32, 9.04, repro,
1996-10-18,-2.84, -8.77, 15.22, 2.30, 2.03, 8.90, repro,
1996-10-19,-2.33, -8.64, 5.68, 2.29, 2.07, 8.64, repro,
1996-10-20,-3.57, -8.83, 1.13, 2.27, 1.98, 8.71, repro,
1996-10-21,-0.30, -9.91, 3.77, 2.54, 2.21, 8.79, repro,
1996-10-22,-0.77, -7.39, 17.98, 2.55, 2.24, 9.07, repro,
1996-10-23,-0.66, -4.99, 19.73, 2.61, 2.27, 9.38, repro,
1996-10-24,-2.48, -8.15, 15.11, 2.25, 1.98, 8.80, repro,
1996-10-25,-0.61, -7.44, 10.02, 2.50, 2.15, 8.92, repro,
1996-10-26,-2.57, -8.91, 3.20, 2.52, 2.18, 8.99, repro,
1996-10-27,0.43, -8.97, 9.33, 2.49, 2.19, 8.77, repro,
1996-10-28,0.19, -9.72, 1.86, 2.50, 2.25, 9.10, repro,
1996-10-29,0.42, -10.01, 1.08, 2.21, 1.98, 8.52, repro,
1996-10-30,-1.46, -6.57, -10.71, 2.19, 2.02, 8.74, repro,
1996-10-31,0.23, -9.31, 9.11, 2.50, 2.22, 9.19, repro,
1996-11-01,1.11, -9.54, 8.27, 2.45, 2.15, 8.71, repro,
1996-11-02,0.43, -7.00, 7.80, 2.48, 2.21, 8.98, repro,
1996-11-03,3.45, -8.61, 5.50, 2.51, 2.24, 9.03, repro,
1996-11-04,-1.57, -9.34, 3.93, 2.58, 2.39, 9.77, repro,
1996-11-05,0.54, -7.92, 10.90, 2.70, 2.41, 9.81, repro,
1996-11-06,2.46, -10.14, 3.08, 2.64, 2.42, 9.66, repro,
1996-11-07,3.57, -8.83, 10.25, 2.56, 2.31, 9.06, repro,
1996-11-08,-0.03, -7.67, -5.74, 2.37, 2.22, 9.50, repro,
1996-11-09,1.88, -13.48, 17.38, 2.78, 2.49, 10.12, repro,
1996-11-10,1.72, -12.72, 13.14, 2.58, 2.34, 9.16, repro,
1996-11-11,1.92, -11.15, 1.66, 2.38, 2.23, 9.37, repro,
1996-11-12,2.06, -9.79, 1.41, 2.57, 2.36, 9.22, repro,
1996-11-13,2.23, -11.09, 1.85, 2.51, 2.30, 8.96, repro,
1996-11-14,3.57, -10.56, 4.33, 2.50, 2.31, 9.07, repro,
1996-11-15,-0.15, -9.80, 0.69, 2.49, 2.20, 9.15, repro,
1996-11-16,1.88, -11.52, -7.43, 2.52, 2.28, 9.44, repro,
1996-11-17,3.54, -8.24, -0.99, 2.52, 2.37, 9.21, repro,
1996-11-18,-0.01, -11.01, -0.50, 2.67, 2.56, 10.02, repro,
1996-11-19,2.35, -13.59, 5.09, 2.71, 2.51, 9.74, repro,
1996-11-20,1.18, -12.80, 4.94, 2.47, 2.24, 8.88, repro,
1996-11-21,0.37, -9.17, 5.79, 2.47, 2.27, 9.03, repro,
1996-11-22,1.81, -10.45, -6.11, 2.42, 2.27, 8.92, repro,
1996-11-23,-0.15, -12.99, 3.10, 2.37, 2.16, 8.74, repro,
1996-11-24,2.03, -10.08, 6.75, 2.56, 2.36, 9.32, repro,
1996-11-25,1.26, -12.55, 3.00, 2.47, 2.33, 9.14, repro,
1996-11-26,3.21, -13.00, -15.32, 2.47, 2.29, 9.33, repro,
1996-11-27,1.88, -11.32, 0.77, 2.46, 2.31, 9.11, repro,
1996-11-28,2.80, -12.73, -2.67, 2.50, 2.23, 9.34, repro,
1996-11-29,0.96, -9.65, 9.51, 2.54, 2.25, 9.50, repro,
1996-11-30,0.33, -11.59, 6.68, 2.43, 2.28, 9.57, repro,
1996-12-01,2.05, -8.92, 26.17, 2.49, 2.23, 9.32, repro,
1996-12-02,2.17, -10.80, 12.90, 2.62, 2.40, 9.88, repro,
1996-12-03,9.94, -10.88, 4.21, 3.34, 3.16, 13.11, repro,
1996-12-04,1.82, -18.00, 13.78, 2.54, 2.32, 9.23, repro,
1996-12-05,0.70, -13.66, 18.83, 2.64, 2.45, 10.27, repro,
1996-12-06,0.33, -9.96, 22.79, 2.75, 2.67, 10.72, repro,
1996-12-07,3.71, -14.32, 19.47, 2.58, 2.36, 9.52, repro,
1996-12-08,1.53, -13.80, 18.11, 2.64, 2.38, 9.63, repro,
1996-12-09,3.87, -11.61, 17.50, 2.58, 2.40, 9.52, repro,
1996-12-10,2.38, -9.35, 10.07, 2.60, 2.41, 9.76, repro,
1996-12-11,1.45, -9.73, 21.36, 2.50, 2.26, 9.12, repro,
1996-12-12,4.71, -11.20, 6.50, 2.59, 2.33, 9.61, repro,
1996-12-13,0.19, -10.58, 18.70, 2.56, 2.29, 9.29, repro,
1996-12-14,4.52, -11.38, 4.49, 2.48, 2.24, 8.99, repro,
1996-12-15,3.18, -10.68, -6.06, 2.56, 2.31, 9.23, repro,
1996-12-16,2.00, -8.97, -3.60, 2.36, 2.12, 8.59, repro,
1996-12-17,1.41, -7.68, 4.45, 2.74, 2.57, 10.38, repro,
1996-12-18,3.75, -9.88, 5.94, 2.86, 2.55, 10.40, repro,
1996-12-19,4.85, -9.51, -0.47, 2.59, 2.32, 9.42, repro,
1996-12-20,4.26, -9.16, 3.87, 2.63, 2.44, 9.84, repro,
1996-12-21,3.47, -8.14, -8.00, 2.62, 2.35, 9.33, repro,
1996-12-22,2.41, -9.93, -3.94, 4.44, 4.52, 18.16, repro,
1996-12-23,5.66, -10.14, 1.60, 2.57, 2.28, 8.96, repro,
1996-12-24,5.89, -11.42, 4.28, 2.54, 2.32, 9.21, repro,
1996-12-25,2.73, -10.45, -7.87, 2.63, 2.34, 9.61, repro,
1996-12-26,4.06, -8.37, 0.70, 2.57, 2.30, 8.99, repro,
1996-12-27,0.98, -8.56, 7.52, 2.62, 2.36, 9.20, repro,
1996-12-28,3.04, -9.98, 1.61, 2.62, 2.35, 9.40, repro,
1996-12-29,4.27, -9.94, 2.08, 2.53, 2.23, 9.17, repro,
1996-12-30,6.19, -10.87, 16.68, 2.65, 2.34, 9.54, repro,
1996-12-31,1.62, -9.93, 1.67, 2.63, 2.34, 9.52, repro,
1997-01-01,0.73, -9.64, 5.74, 2.62, 2.31, 9.73, repro,
1997-01-02,0.13, -8.67, 16.65, 2.54, 2.33, 9.87, repro,
1997-01-03,2.25, -11.24, 3.92, 2.61, 2.40, 9.99, repro,
1997-01-04,1.15, -10.98, 17.03, 2.60, 2.37, 9.71, repro,
1997-01-05,1.33, -11.57, 14.83, 2.51, 2.22, 9.30, repro,
1997-01-06,1.82, -9.94, 8.90, 2.76, 2.55, 10.79, repro,
1997-01-07,-1.43, -10.99, 8.35, 2.46, 2.27, 10.15, repro,
1997-01-08,-1.20, -9.46, 3.79, 2.35, 2.13, 9.44, repro,
1997-01-09,-3.46, -6.69, 4.90, 2.57, 2.31, 9.93, repro,
1997-01-10,-0.00, -9.74, -2.98, 2.27, 2.04, 8.94, repro,
1997-01-11,-1.07, -8.80, 4.54, 2.40, 2.14, 9.37, repro,
1997-01-12,-3.09, -9.03, 4.65, 2.45, 2.24, 9.86, repro,
1997-01-13,-0.59, -10.16, 5.49, 2.27, 2.09, 9.08, repro,
1997-01-14,0.07, -10.56, -5.78, 2.50, 2.17, 10.25, repro,
1997-01-15,1.65, -8.48, -2.40, 2.53, 2.27, 9.98, repro,
1997-01-16,-1.44, -8.97, 7.28, 2.96, 2.76, 11.71, repro,
1997-01-17,0.80, -8.18, 8.81, 2.56, 2.40, 10.74, repro,
1997-01-18,-0.46, -9.74, 0.96, 2.52, 2.32, 10.04, repro,
1997-01-19,0.26, -8.20, -2.84, 2.45, 2.26, 9.27, repro,
1997-01-20,-0.68, -7.24, -10.22, 2.30, 2.06, 9.12, repro,
1997-01-21,-3.34, -7.64, -9.27, 3.97, 3.76, 16.67, repro,
1997-01-22,-1.43, -10.50, 2.80, 2.72, 2.37, 10.05, repro,
1997-01-23,-2.29, -7.20, -1.29, 2.39, 2.13, 9.34, repro,
1997-01-24,-1.38, -9.83, 6.55, 2.64, 2.36, 9.81, repro,
1997-01-25,-3.47, -11.20, 7.90, 2.44, 2.23, 9.87, repro,
1997-01-26,-0.15, -11.77, -11.31, 2.54, 2.24, 9.75, repro,
1997-01-27,0.09, -10.15, 3.66, 3.05, 2.72, 10.95, repro,
1997-01-28,3.09, -9.80, -0.22, 2.36, 2.17, 8.91, repro,
1997-01-29,-0.39, -9.39, -4.19, 2.33, 2.13, 9.05, repro,
1997-01-30,1.31, -11.23, -9.96, 2.40, 2.16, 8.67, repro,
1997-01-31,2.69, -10.19, 1.79, 2.49, 2.18, 9.07, repro,
1997-02-01,0.14, -11.97, 6.05, 2.35, 2.04, 8.86, repro,
1997-02-02,-0.98, -9.36, -15.32, 3.16, 2.76, 12.56, repro,
1997-02-03,-1.39, -10.17, -18.05, 3.13, 2.77, 12.32, repro,
1997-02-04,-1.98, -10.70, -8.36, 3.00, 2.76, 12.59, repro,
1997-02-05,-0.17, -11.95, -11.52, 3.10, 2.77, 12.40, repro,
1997-02-06,2.13, -13.00, -5.16, 3.12, 2.75, 12.16, repro,
1997-02-07,0.38, -12.43, -18.62, 3.06, 2.71, 12.02, repro,
1997-02-08,-2.40, -11.55, -16.80, 2.98, 2.62, 11.95, repro,
1997-02-09,-2.28, -12.01, -21.93, 3.06, 2.71, 11.99, repro,
1997-02-10,-4.08, -9.92, -19.23, 3.10, 2.80, 12.97, repro,
1997-02-11,-2.59, -8.22, -29.20, 3.18, 2.75, 12.43, repro,
1997-02-12,-1.22, -9.88, -20.69, 3.10, 2.68, 12.20, repro,
1997-02-13,-1.30, -7.38, -31.22, 3.03, 2.66, 11.79, repro,
1997-02-14,-0.26, -10.05, -3.14, 3.25, 2.86, 16.25, repro,
1997-02-15,-1.31, -7.68, 15.19, 3.16, 2.87, 15.21, repro,
1997-02-16,-1.39, -7.75, -13.95, 2.92, 2.66, 13.94, repro,
1997-02-17,0.55, -8.94, -22.05, 3.21, 2.84, 15.12, repro,
1997-02-18,2.30, -11.41, -12.81, 3.38, 3.12, 15.38, repro,
1997-02-19,3.14, -13.15, -5.72, 3.05, 2.80, 14.37, repro,
1997-02-20,0.92, -12.85, 5.91, 3.05, 2.79, 14.31, repro,
1997-02-21,1.53, -12.95, 0.85, 3.07, 2.87, 14.50, repro,
1997-02-22,-2.09, -12.78, 1.41, 2.87, 2.63, 14.09, repro,
1997-02-23,1.54, -13.15, -18.97, 3.04, 2.75, 14.35, repro,
1997-02-24,2.40, -11.63, -11.52, 2.54, 2.24, 9.10, repro,
1997-02-25,2.21, -11.83, -13.05, 2.32, 2.08, 9.00, repro,
1997-02-26,1.65, -10.82, -5.84, 2.28, 2.04, 9.07, repro,
1997-02-27,4.49, -13.39, 7.15, 2.66, 2.40, 9.85, repro,
1997-02-28,2.15, -13.11, -11.05, 2.38, 2.20, 9.66, repro,
1997-03-01,0.30, -12.33, -3.16, 2.58, 2.36, 9.53, repro,
1997-03-02,-0.83, -11.71, 3.19, 2.32, 2.17, 9.14, repro,
1997-03-03,-1.55, -14.76, -1.06, 2.25, 2.06, 8.98, repro,
1997-03-04,2.06, -12.49, -18.28, 2.39, 2.20, 9.65, repro,
1997-03-05,3.65, -11.01, -7.56, 2.43, 2.22, 9.14, repro,
1997-03-06,0.58, -13.42, -6.68, 2.28, 2.10, 9.51, repro,
1997-03-07,0.25, -9.46, -4.25, 2.43, 2.09, 9.77, repro,
1997-03-08,1.78, -14.11, -2.20, 2.58, 2.32, 9.71, repro,
1997-03-09,0.21, -13.61, 5.13, 2.56, 2.31, 9.65, repro,
1997-03-10,1.86, -14.32, 2.51, 2.50, 2.31, 9.60, repro,
1997-03-11,-2.08, -9.46, -4.50, 2.28, 2.06, 9.45, repro,
1997-03-12,-1.34, -10.40, -9.96, 2.26, 2.06, 9.33, repro,
1997-03-13,-0.91, -10.46, -12.87, 2.48, 2.27, 9.60, repro,
1997-03-14,-0.17, -11.49, -14.93, 2.33, 2.08, 9.37, repro,
1997-03-15,0.74, -12.57, -7.41, 2.28, 2.01, 9.27, repro,
1997-03-16,2.69, -11.87, -1.79, 2.46, 2.21, 9.24, repro,
1997-03-17,0.30, -11.18, -15.46, 2.22, 1.97, 9.14, repro,
1997-03-18,1.55, -11.61, -4.09, 2.46, 2.22, 9.28, repro,
1997-03-19,1.31, -12.07, -5.68, 2.49, 2.22, 9.12, repro,
1997-03-20,-0.89, -10.98, 1.35, 2.24, 2.03, 9.06, repro,
1997-03-21,-5.46, -26.46, -7.23, 8.87, 8.46, 33.34, repro,
1997-03-22,-1.54, -10.41, 5.46, 4.14, 3.67, 17.33, repro,
1997-03-23,0.12, -12.96, 40.34, 6.69, 5.85, 25.04, repro,